EN

Hourly Weather Acanceh

Today, 28 November, Saturday

Time Temperature Precipitation Wind Pressure Humidity
00:00 +23°C° 0 mm 1 mps 759 mmHg 93%
01:00 +23°C° 0 mm 1 mps 759 mmHg 94%
02:00 +23°C° 0 mm 1 mps 759 mmHg 96%
03:00 +22°C° 0 mm 1 mps 759 mmHg 97%
04:00 +22°C° 0 mm 1 mps 759 mmHg 97%
05:00 +22°C° 0 mm 1 mps 759 mmHg 97%
06:00 +22°C° 0 mm 1 mps 759 mmHg 97%
07:00 +24°C° 0 mm 2 mps 759 mmHg 89%
08:00 +25°C° 0 mm 2 mps 760 mmHg 82%
09:00 +27°C° 0 mm 2 mps 760 mmHg 74%
10:00 +29°C° 0 mm 2 mps 760 mmHg 67%
11:00 +30°C° 0 mm 2 mps 759 mmHg 60%
12:00 +32°C° 0 mm 2 mps 759 mmHg 54%
13:00 +32°C° 0 mm 2 mps 758 mmHg 53%
14:00 +32°C° 0 mm 2 mps 758 mmHg 52%
15:00 +34°C° 0 mm 2 mps 757 mmHg 51%
16:00 +31°C° 0 mm 2 mps 758 mmHg 59%
17:00 +29°C° 0 mm 2 mps 758 mmHg 67%
18:00 +27°C° 0 mm 3 mps 758 mmHg 75%
19:00 +26°C° 0.2 mm 2 mps 759 mmHg 81%
20:00 +25°C° 0.2 mm 2 mps 759 mmHg 88%
21:00 +24°C° 0.2 mm 2 mps 760 mmHg 94%
22:00 +24°C° 0.1 mm 2 mps 759 mmHg 95%
23:00 +23°C° 0.1 mm 2 mps 759 mmHg 96%

Tomorrow, 29 November, Sunday

Time Temperature Precipitation Wind Pressure Humidity
00:00 +23°C° 0.1 mm 1 mps 759 mmHg 97%
01:00 +23°C° 0 mm 1 mps 759 mmHg 97%
02:00 +23°C° 0 mm 2 mps 758 mmHg 97%
03:00 +21°C° 0 mm 2 mps 758 mmHg 98%
04:00 +22°C° 0 mm 1 mps 758 mmHg 97%
05:00 +22°C° 0 mm 1 mps 758 mmHg 97%
06:00 +22°C° 0 mm 1 mps 758 mmHg 97%
07:00 +24°C° 0 mm 2 mps 759 mmHg 92%
08:00 +25°C° 0 mm 2 mps 759 mmHg 86%
09:00 +27°C° 0 mm 2 mps 759 mmHg 80%
10:00 +29°C° 0 mm 2 mps 759 mmHg 72%
11:00 +31°C° 0 mm 2 mps 759 mmHg 64%
12:00 +32°C° 0 mm 2 mps 758 mmHg 56%
13:00 +34°C° 0 mm 2 mps 758 mmHg 55%
14:00 +33°C° 0 mm 1 mps 757 mmHg 55%
15:00 +33°C° 0 mm 1 mps 757 mmHg 54%
16:00 +31°C° 0.4 mm 1 mps 757 mmHg 65%
17:00 +28°C° 0.4 mm 2 mps 757 mmHg 76%
18:00 +26°C° 0.4 mm 2 mps 758 mmHg 88%
19:00 +25°C° 0.6 mm 1 mps 758 mmHg 90%
20:00 +25°C° 0.6 mm 1 mps 759 mmHg 92%
21:00 +23°C° 0.6 mm 0 mps 759 mmHg 94%
22:00 +22°C° 0.5 mm 0 mps 759 mmHg 95%
23:00 +22°C° 0.5 mm 0 mps 759 mmHg 95%

Day after tomorrow, 30 November, Monday

Time Temperature Precipitation Wind Pressure Humidity
00:00 +22°C° 0.5 mm 0 mps 759 mmHg 95%
01:00 +22°C° 0 mm 0 mps 759 mmHg 96%
02:00 +22°C° 0 mm 0 mps 759 mmHg 96%
03:00 +21°C° 0 mm 0 mps 758 mmHg 96%
04:00 +21°C° 0 mm 0 mps 759 mmHg 96%
05:00 +21°C° 0 mm 0 mps 759 mmHg 96%
06:00 +21°C° 0 mm 0 mps 759 mmHg 96%
07:00 +23°C° 0.1 mm 0 mps 759 mmHg 91%
08:00 +26°C° 0.1 mm 1 mps 760 mmHg 85%
09:00 +28°C° 0.1 mm 1 mps 760 mmHg 80%
10:00 +29°C° 0.3 mm 1 mps 760 mmHg 71%
11:00 +31°C° 0.3 mm 2 mps 760 mmHg 62%
12:00 +32°C° 0.3 mm 2 mps 759 mmHg 53%
13:00 +30°C° 0.9 mm 3 mps 759 mmHg 64%
14:00 +28°C° 0.9 mm 4 mps 759 mmHg 75%
15:00 +26°C° 0.9 mm 5 mps 758 mmHg 87%
16:00 +25°C° 0.3 mm 5 mps 759 mmHg 88%
17:00 +23°C° 0.3 mm 4 mps 760 mmHg 89%
18:00 +22°C° 0.3 mm 4 mps 761 mmHg 90%
19:00 +22°C° 0 mm 3 mps 761 mmHg 88%
20:00 +22°C° 0 mm 3 mps 762 mmHg 86%
21:00 +21°C° 0 mm 3 mps 762 mmHg 84%
22:00 +21°C° 0 mm 3 mps 763 mmHg 83%
23:00 +21°C° 0 mm 3 mps 763 mmHg 82%

1 December, Tuesday

Time Temperature Precipitation Wind Pressure Humidity
00:00 +21°C° 0 mm 3 mps 763 mmHg 81%
01:00 +21°C° 0 mm 2 mps 762 mmHg 80%
02:00 +20°C° 0 mm 2 mps 762 mmHg 79%
03:00 +20°C° 0 mm 2 mps 762 mmHg 79%
04:00 +20°C° 0 mm 2 mps 762 mmHg 78%
05:00 +20°C° 0 mm 2 mps 762 mmHg 77%
06:00 +20°C° 0 mm 2 mps 763 mmHg 77%
07:00 +21°C° 0 mm 3 mps 763 mmHg 74%
08:00 +22°C° 0 mm 3 mps 763 mmHg 70%
09:00 +22°C° 0 mm 4 mps 764 mmHg 67%
10:00 +24°C° 0 mm 3 mps 763 mmHg 65%
11:00 +24°C° 0 mm 3 mps 763 mmHg 63%
12:00 +24°C° 0 mm 3 mps 763 mmHg 61%
13:00 +25°C° 0 mm 3 mps 762 mmHg 61%
14:00 +25°C° 0 mm 3 mps 761 mmHg 60%
15:00 +25°C° 0 mm 2 mps 761 mmHg 60%
16:00 +24°C° 0 mm 2 mps 761 mmHg 66%
17:00 +21°C° 0 mm 2 mps 761 mmHg 71%
18:00 +20°C° 0 mm 2 mps 761 mmHg 77%
19:00 +19°C° 0 mm 2 mps 762 mmHg 79%
20:00 +19°C° 0 mm 2 mps 762 mmHg 81%
21:00 +19°C° 0 mm 1 mps 762 mmHg 83%
22:00 +19°C° 0 mm 1 mps 761 mmHg 85%
23:00 +19°C° 0 mm 1 mps 761 mmHg 87%

2 December, Wednesday

Time Temperature Precipitation Wind Pressure Humidity
00:00 +18°C° 0 mm 1 mps 761 mmHg 88%
01:00 +18°C° 0 mm 1 mps 761 mmHg 90%
02:00 +18°C° 0 mm 1 mps 761 mmHg 93%
03:00 +18°C° 0 mm 1 mps 760 mmHg 95%
04:00 +18°C° 0 mm 1 mps 760 mmHg 95%
05:00 +18°C° 0 mm 1 mps 761 mmHg 95%
06:00 +18°C° 0 mm 1 mps 761 mmHg 96%
07:00 +19°C° 0 mm 2 mps 761 mmHg 87%
08:00 +21°C° 0 mm 2 mps 761 mmHg 77%
09:00 +24°C° 0 mm 3 mps 762 mmHg 68%
10:00 +26°C° 0 mm 3 mps 761 mmHg 64%
11:00 +27°C° 0 mm 3 mps 761 mmHg 59%
12:00 +28°C° 0 mm 2 mps 760 mmHg 55%
13:00 +29°C° 0 mm 2 mps 760 mmHg 55%
14:00 +29°C° 0 mm 2 mps 759 mmHg 55%
15:00 +29°C° 0 mm 2 mps 759 mmHg 55%
16:00 +27°C° 0 mm 2 mps 759 mmHg 62%
17:00 +25°C° 0 mm 2 mps 759 mmHg 70%
18:00 +24°C° 0 mm 2 mps 760 mmHg 78%
19:00 +23°C° 0 mm 2 mps 760 mmHg 81%
20:00 +21°C° 0 mm 2 mps 760 mmHg 84%
21:00 +21°C° 0 mm 2 mps 761 mmHg 87%
22:00 +20°C° 0 mm 2 mps 761 mmHg 89%
23:00 +20°C° 0 mm 2 mps 760 mmHg 91%

3 December, Thursday

Time Temperature Precipitation Wind Pressure Humidity
00:00 +20°C° 0 mm 2 mps 760 mmHg 92%
01:00 +19°C° 0 mm 2 mps 760 mmHg 94%
02:00 +20°C° 0 mm 1 mps 760 mmHg 95%
03:00 +20°C° 0 mm 1 mps 759 mmHg 97%
04:00 +20°C° 0 mm 1 mps 759 mmHg 97%
05:00 +20°C° 0 mm 1 mps 759 mmHg 97%
06:00 +21°C° 0 mm 1 mps 760 mmHg 98%
07:00 +23°C° 0 mm 1 mps 760 mmHg 91%
08:00 +25°C° 0 mm 2 mps 760 mmHg 85%
09:00 +27°C° 0 mm 2 mps 760 mmHg 78%
10:00 +29°C° 0 mm 2 mps 760 mmHg 71%
11:00 +30°C° 0 mm 2 mps 759 mmHg 65%
12:00 +32°C° 0 mm 2 mps 759 mmHg 58%
13:00 +32°C° 0.1 mm 1 mps 758 mmHg 58%
14:00 +32°C° 0.1 mm 1 mps 758 mmHg 58%
15:00 +30°C° 0.1 mm 0 mps 758 mmHg 57%
16:00 +30°C° 0.1 mm 1 mps 758 mmHg 68%
17:00 +28°C° 0.1 mm 1 mps 758 mmHg 78%
18:00 +26°C° 0.1 mm 2 mps 759 mmHg 89%
19:00 +25°C° 0.2 mm 1 mps 759 mmHg 91%
20:00 +24°C° 0.2 mm 1 mps 760 mmHg 93%
21:00 +22°C° 0.2 mm 0 mps 760 mmHg 95%
22:00 +22°C° 0 mm 0 mps 760 mmHg 95%
23:00 +22°C° 0 mm 0 mps 760 mmHg 95%
Show more